www.pogodaiklimat.ru

Погода и климат >> Архив погоды >> Турция >> Finike


ПОГОДА в Finike

  • Прогноз погоды в Finike
  • Монитор погоды в Finike
  • Климат города

АРХИВ ПОГОДЫ в Finike

Время (UTC), дата Ветер
(напр.,м/с)
 
Видим.   Явления Облачность Т
(С)
Тd
(С)
f
(%)
Тe
(С)
Тes
(С)
Комфортность P
(гПа)
Po
(гПа)
Тmin
(С)
Tmax
(С)
R
(мм)
R24
(мм)
S
(см)
06 15.10 С 2
{6}
20 км ясно +24.3 +4.0 27 +24 +26 комфорт 1016.2 1016.0 +18.5
07 15.10 С 1 20 км ясно +26.3 +4.0 24 +25 +31 комфорт 1016.7 1016.5
08 15.10 С 2 20 км ясно +27.6 +4.4 23 +26 +34 жарко 1016.9 1016.7
09 15.10 Ю 1
{5}
20 км ясно +27.9 +4.1 22 +26 +38 жарко 1016.9 1016.7
10 15.10 Ю 2 20 км ясно +28.4 +5.2 23 +27 +38 жарко 1016.7 1016.5
11 15.10 Ю 2 20 км ясно +29.0 +3.7 20 +27 +37 жарко 1016.3 1016.1
12 15.10 Ю 3
{6}
20 км ясно +27.9 +5.4 24 +27 +33 жарко 1016.2 1016.0
13 15.10 ЮЗ 3 20 км ясно +27.9 +7.6 28 +27 +31 жарко 1016.1 1015.9
14 15.10 З 3 20 км ясно +27.2 +9.4 33 +28 +29 жарко 1015.8 1015.6
15 15.10 ЮЗ 2
{6}
20 км ясно +25.8 +8.6 34 +26 +26 жарко 1015.6 1015.4
06 16.10 С 1
{2}
20 км ясно +22.2 +6.7 37 +23 +25 комфорт 1018.0 1017.8 +16.1
07 16.10 ЮВ 1 20 км ясно +24.8 +9.0 37 +25 +31 комфорт 1018.0 1017.8
08 16.10 ЮВ 1 20 км ясно +25.1 +8.4 35 +26 +34 жарко 1018.0 1017.8
09 16.10 Ю 1
{4}
20 км ясно +26.3 +12.7 43 +28 +39 жарко 1017.7 1017.5
10 16.10 Ю 3 20 км ясно +26.5 +13.9 46 +29 +37 жарко 1017.5 1017.3
11 16.10 Ю 4 20 км ясно +26.4 +14.5 48 +29 +36 жарко 1017.0 1016.8
12 16.10 Ю 2
{7}
20 км ясно +28.3 +13.3 40 +30 +37 жарко 1016.4 1016.2
13 16.10 Ю 1 20 км ясно +28.8 +13.0 38 +30 +35 жарко 1016.3 1016.1
14 16.10 ЮВ 1 20 км ясно +27.5 +11.0 36 +28 +31 жарко 1016.1 1015.9
15 16.10 С 1
{4}
20 км ясно +25.3 +11.4 42 +27 +27 жарко 1016.2 1016.0
06 17.10 С 3
{6}
20 км ясно +24.4 +6.9 33 +25 +26 комфорт 1018.4 1018.2 +18.5
07 17.10 С 1 20 км ясно +26.2 +8.5 33 +26 +32 жарко 1018.6 1018.4
08 17.10 ЮВ 1 20 км ясно +26.9 +8.2 31 +27 +35 жарко 1018.6 1018.4
09 17.10 ЮВ 2
{4}
20 км ясно +27.2 +10.3 35 +28 +38 жарко 1018.6 1018.4
10 17.10 Ю 3 20 км ясно +27.2 +12.3 40 +29 +38 жарко 1018.5 1018.3
11 17.10 Ю 3 20 км ясно +27.1 +12.6 41 +29 +36 жарко 1017.8 1017.6
12 17.10 Ю 3
{7}
20 км ясно +27.9 +12.6 39 +29 +36 жарко 1017.4 1017.2
13 17.10 ЮЗ 2 20 км ясно +28.5 +11.9 36 +30 +34 жарко 1017.2 1017.0
14 17.10 ЮЗ 2 20 км ясно +28.3 +11.7 36 +29 +31 жарко 1017.2 1017.0
15 17.10 С 1
{6}
20 км ясно +25.8 +10.3 38 +27 +27 жарко 1017.5 1017.3
06 18.10 С 1
{3}
20 км ясно +22.5 +6.9 37 +23 +25 комфорт 1018.2 1018.0 +16.8
07 18.10 СВ 1 20 км ясно +26.3 +6.7 29 +26 +31 жарко 1018.0 1017.8
08 18.10 ЮВ 1 20 км ясно +25.1 +10.8 41 +26 +35 жарко 1017.8 1017.6
09 18.10 Ю 1
{3}
20 км ясно +27.9 +8.6 30 +28 +38 жарко 1017.5 1017.3
10 18.10 Ю 3 20 км ясно +27.3 +10.4 35 +28 +37 жарко 1016.9 1016.7
11 18.10 Ю 2 20 км ясно +27.8 +8.5 30 +28 +37 жарко 1016.3 1016.1
12 18.10 ЮЗ 3
{7}
20 км ясно +27.5 +9.2 32 +28 +33 жарко 1016.0 1015.8
13 18.10 ЮЗ 3 20 км ясно +26.6 +10.6 37 +27 +31 жарко 1015.7 1015.5
14 18.10 ЮЗ 2 20 км ясно +26.3 +10.7 38 +27 +29 жарко 1015.7 1015.5
15 18.10 С 2
{7}
20 км ясно +24.0 +11.6 46 +26 +26 жарко 1015.8 1015.6
06 19.10 С 1
{2}
20 км ясно +21.0 +4.0 33 +23 +25 комфорт 1016.8 1016.6 +14.9
07 19.10 С 1 20 км ясно +24.6 +5.2 29 +24 +29 комфорт 1016.9 1016.7
08 19.10 ЮВ 1 20 км ясно +25.2 +12.4 45 +27 +35 жарко 1017.0 1016.8
09 19.10 Ю 2
{3}
20 км ясно +26.7 +15.4 50 +30 +39 душно 1016.8 1016.6
10 19.10 ЮЗ 2 20 км ясно +26.7 +15.7 51 +30 +39 душно 1016.4 1016.2
11 19.10 Ю 3 20 км ясно +27.2 +14.5 46 +30 +38 душно 1015.9 1015.7
12 19.10 ЮЗ 2
{5}
20 км ясно +27.5 +14.8 46 +30 +37 жарко 1015.5 1015.3
13 19.10 Ю 3 20 км ясно +26.3 +16.0 53 +30 +33 душно 1015.3 1015.1
14 19.10 ЮЗ 1 20 км ясно +27.2 +14.2 45 +29 +31 жарко 1015.3 1015.1
15 19.10 С 2
{5}
20 км ясно +24.8 +9.4 38 +26 +26 жарко 1015.4 1015.2
06 20.10 С 1
{2}
20 км ясно +21.3 +5.5 36 +22 +24 комфорт 1016.1 1015.9 +15.0
07 20.10 СВ 1 20 км ясно +24.9 +6.5 31 +25 +30 комфорт 1016.2 1016.0
08 20.10 ЮВ 1 20 км ясно +25.2 +8.1 34 +26 +34 жарко 1016.3 1016.1
09 20.10 В 1
{2}
20 км ясно +26.5 +9.2 34 +27 +37 жарко 1016.0 1015.8
10 20.10 Ю 2 20 км ясно +26.7 +16.1 52 +30 +40 душно 1015.5 1015.3
11 20.10 Ю 2 20 км ясно +26.7 +18.1 59 +31 +40 душно 1015.0 1014.8
12 20.10 ЮЗ 2
{4}
20 км ясно +27.5 +15.5 48 +30 +37 жарко 1014.7 1014.5
13 20.10 ЮЗ 2 20 км ясно +27.1 +14.1 45 +29 +34 жарко 1014.8 1014.6
14 20.10 СЗ 2 20 км ясно +25.8 +14.9 51 +29 +30 душно 1014.7 1014.5
15 20.10 С 2
{4}
20 км ясно +24.4 +13.9 52 +27 +27 жарко 1014.9 1014.7
06 21.10 СВ 1
{2}
20 км ясно +20.1 +5.6 39 +22 +24 комфорт 1014.9 1014.7 +15.0
07 21.10 ЮВ 1 20 км ясно +22.8 +8.0 39 +24 +29 комфорт 1015.2 1015.0
08 21.10 ЮВ 1 20 км ясно +24.2 +6.8 33 +24 +33 комфорт 1015.0 1014.8
09 21.10 ЮВ 2
{3}
20 км ясно +25.1 +16.3 58 +28 +38 жарко 1014.6 1014.4
10 21.10 Ю 2 20 км ясно +28.1 +11.9 37 +29 +40 жарко 1013.8 1013.6
11 21.10 ЮЗ 2 20 км ясно +27.8 +16.8 51 +31 +41 душно 1013.1 1012.9
12 21.10 Ю 2
{5}
20 км ясно +27.9 +14.5 44 +30 +37 жарко 1012.5 1012.3
13 21.10 ЮЗ 1 20 км ясно +27.7 +14.3 44 +30 +35 жарко 1012.4 1012.2
14 21.10 СЗ 2 20 км ясно +26.1 +15.8 53 +29 +31 жарко 1012.3 1012.1
15 21.10 С 2
{4}
20 км 3/0
[Ci fib]
+24.1 +15.4 58 +27 +27 жарко 1012.5 1012.3

 

Местоположение метеостанции Finike (Турция): широта 36.30 долгота 30.15 высота над уровнем моря 2 м.

В архиве по умолчанию представлена погода в Finike за последнюю неделю. Архивные данные за месяц целиком и за предыдущие месяцы, начиная с января 2011 года, Вы можете получить, выбрав интересующий диапазон дат из раскрывающегося списка и нажав кнопку "Ввод!".

Внимание! Время в таблицах - всемирное. Для получения местного времени необходимо прибавить поправку, которая в Finike равна 2 ч.

Смотрите также архив погоды в соседних городах и на ближайших метеорологических станциях:

Погода в Kas (Турция) (46 км)
Погода в Antalya (Турция) (82 км)
Погода в Fethiye (Турция) (99 км)
Погода в Side (Турция) (122 км)
Погода в Dalaman (Турция) (130 км)
Погода в Burdur (Турция) (153 км)
Погода в Isparta (Турция) (165 км)
Погода в Alanya (Турция) (168 км)
Погода в Suleyman Demirel (Турция) (174 км)
Погода в Marmaris (Турция) (179 км)

Пояснения к столбцам:

Ветер - указаны скорость ветра в м/с - средняя за 10 мин, порывы в срок и между сроками (в фигурных скобках) и направление, откуда дует ветер: С - северный, СВ - северо-восточный, В - восточный, ЮВ - юго-восточный, Ю - южный, ЮЗ - юго-западный, З - западный, СЗ - северо-западный.
Видимость - горизонтальная дальность видимости в метрах или километрах. При видимости от 1 до 10 км при отсутствии осадков обычно наблюдается дымка, при ухудшении видимости до 1 км и менее - туман. В сухую погоду видимость может ухудшаться дымом, пылью или мглою.
Явления - указаны атмосферные явления, наблюдавшиеся в срок или в последний час перед сроком; фигурными скобками обозначены явления, наблюдавшиеся между сроками (за 1-3 часа до срока); квадратными скобками обозначены град или гололедные отложения с указанием их диаметра в мм.
Облачность - указаны через наклонную черту общая и нижняя облачность в баллах и высота нижней границы облаков в метрах; квадратными скобками обозначены формы облаков: Ci - перистые, Cs - перисто-слоистые, Cc - перисто-кучевые, Ac - высококучевые, As - высокослоистые, Sc - слоисто-кучевые, Ns - слоисто-дождевые, Cu - кучевые, Cb - кучево-дождевые. Подробнее классификацию облаков см. в Атласе облаков (PDF).
T - Температура воздуха - температура, измеренная на высоте 2 м над землей.
Td - Температура точки росы - температура, при понижении до которой содержащийся в воздухе водяной пар достигнет насыщения.
f - Относительная влажность воздуха - влажноcть воздуха, измеренная на высоте 2 м над землей.
Te - Эффективная температура - температура, которую ощущает одетый по сезону человек в тени. Характеристика душности погоды. При расчете учитывается влияние влажности воздуха и скорости ветра на теплоощущения человека.
Tes - Эффективная температура на солнце - температура, которую ощущает человек, с поправкой на солнечный нагрев. Характеристика знойности погоды. Зависит от высоты солнца над горизонтом, облачности и скорости ветра. Ночью, в пасмурную погоду, а также при ветре 12 м/с и более поправка равна нулю.
P - Атмосферное давление - приведенное к уровню моря атмосферное давление.
Po - Атмосферное давление - измеренное на уровне метеостанции атмосферное давление.
Tmin - Минимальная температура - минимум температуры воздуха на высоте 2 м над землей.
Tmax - Максимальная температура - максимум температуры воздуха на высоте 2 м над землей.
R - Количество осадков - Количество выпавших осадков за период времени, мм. При наведении курсора мыши на число - период времени, за который выпало указанное количество осадков.
R24 - Количество осадков - Количество выпавших осадков за 24 часа, мм.
S - Снежный покров - Высота снежного покрова, см. При наведении курсора мыши на число - состояние снежного покрова и степень покрытия местности в баллах.